Regional Weather Roundup
Issued by NWS Kansas City/Pleasant Hill, MO

Home | Current Version | Previous Version | Graphics & Text | Print | Product List | Glossary Off
Versions: 1 2 3 4 5 6 7 8 9 10 11 12 13 14 15 16 17 18 19 20 21 22 23 24 25 26 27 28

000
ASUS43 KEAX 241210
RWREAX

WEATHER ROUNDUP FOR EASTERN KANSAS AND NORTHWEST MISSOURI
NATIONAL WEATHER SERVICE KANSAS CITY/PLEASANT HILL MO
700 AM CDT SAT JUN 24 2017

KSZ040-057-103>105-MOZ028-029-037-043-241300-
...KANSAS CITY METROPOLITAN AREA...

CITY           SKY/WX    TMP DP  RH WIND       PRES   REMARKS
K.C. INTL      SUNNY     59  53  80 NW7       30.15R
6HR MIN TEMP:  57; 6HR MAX TEMP:  62;

K.C. DOWNTOWN  SUNNY     63  54  72 NW6       30.14R
6HR MIN TEMP:  61; 6HR MAX TEMP:  68;

LEES SUMMIT    SUNNY     62  54  74 NW6       30.15R
6HR MIN TEMP:  59; 6HR MAX TEMP:  65;

OLATHE - IXD   SUNNY     60  53  77 NW7       30.16R
6HR MIN TEMP:  54; 6HR MAX TEMP:  63;

OLATHE - OJC   SUNNY     61  54  77 NW5       30.16R
6HR MIN TEMP:  59; 6HR MAX TEMP:  66;

LAWRENCE       SUNNY     57  55  93 NW8       30.16R

$$

MOZ001>008-011>017-020>025-030>033-038>040-044>046-053-054-241300-
...NORTHERN AND CENTRAL MISSOURI...

CITY           SKY/WX    TMP DP  RH WIND       PRES   REMARKS
ST. JOSEPH     SUNNY     55  54  96 N6        30.16R
6HR MIN TEMP:  51; 6HR MAX TEMP:  62;

MOSBY          SUNNY     59  54  82 N3        30.15R
WHITEMAN AFB   SUNNY     60  60 100 NW5       30.13R
6HR MIN TEMP:  57; 6HR MAX TEMP:  63;

CLINTON        NOT AVBL
SEDALIA        SUNNY     61  58  90 W3        30.14R
6HR MIN TEMP:  58; 6HR MAX TEMP:  64;

WARSAW         NOT AVBL
CHILLICOTHE      N/A     62  52  69 CALM      30.13R
6HR MIN TEMP:  58; 6HR MAX TEMP:  65;

KIRKSVILLE     SUNNY     58  53  84 NW6       30.10R
6HR MIN TEMP:  54; 6HR MAX TEMP:  61;


$$

MOZ041-047>049-056>058-063>065-088>090-097-241300-
...EASTERN AND SOUTHERN MISSOURI...

CITY           SKY/WX    TMP DP  RH WIND       PRES   REMARKS
ST. LOUIS INTL MOSUNNY   67  56  67 NW6       30.08R
6HR MIN TEMP:  64; 6HR MAX TEMP:  71;

SPIRIT OF STL  MOSUNNY   65  57  75 NW8       30.08R
COLUMBIA       SUNNY     61  57  87 W6        30.12R
JEFFERSON CITY MOSUNNY   60  56  86 NW3       30.12R
ROLLA          SUNNY     61  56  83 W5        30.12R
OSAGE BEACH    SUNNY     60  56  86 CALM      30.14R
SPRINGFIELD    SUNNY     60  57  89 CALM      30.15R
BRANSON        PTSUNNY   63  55  77 S7        30.18R
JOPLIN         SUNNY     63  58  83 NE6       30.16R
WEST PLAINS    SUNNY     64  55  72 N5        30.14R

$$

IAZ060-094-KSZ022-034>040-054-083-096-NEZ052-066-093-241300-
...KANSAS...SOUTHEAST NEBRASKA AND IOWA...

CITY           SKY/WX    TMP DP  RH WIND       PRES   REMARKS
TOPEKA         CLEAR     58  56  93 NW5       30.17R
6HR MIN TEMP:  56; 6HR MAX TEMP:  64;

MANHATTAN      CLEAR     53  51  93 CALM      30.19R
EMPORIA        CLEAR     57  54  89 NW3       30.18R
CHANUTE        CLEAR     58  55  90 N5        30.16R
WICHITA        CLOUDY    64  55  72 NE3       30.18R
OMAHA          SUNNY     55  48  77 N3        30.16R
LINCOLN        CLEAR     50  46  86 N5        30.20R
FALLS CITY     SUNNY     54  49  83 NW7       30.16R
LAMONI         SUNNY     56  47  71 NW8       30.12R
DES MOINES     SUNNY     57  46  66 W7        30.09R

$$





USA.gov is the U.S. government's official web portal to all federal, state and local government web resources and services.